CAPE
0 0 0 0 0 0 0 0 126 142 112 363 390 94 32 7 0 0 0 0 0 0 0 0 0 0 0 0 79 128 151 230 5 51 591 773 861 777 483 334 147 171 50 167
0 0 0 0 0 0 0 0 70 42 206 90 127 280 89 48 21 0 0 0 0 0 0 0 0 0 0 7 106 124 137 161 79 76 651 893 1000 877 722 696 410 588 145 302
0 0 0 0 0 0 0 0 0 36 219 146 160 129 109 45 37 0 0 0 0 0 0 0 0 0 0 38 110 153 172 107 201 418 771 414 233 415 627 725 934 925 951 543
0 0 0 0 0 0 0 0 0 130 98 54 79 155 103 147 5 0 0 0 0 0 0 0 0 0 0 34 109 186 229 205 264 650 973 1016 982 989 769 698 625 684 555 1181
0 0 0 0 0 0 0 0 0 47 1 1 80 46 0 72 110 0 0 0 0 0 0 0 0 0 6 64 127 254 324 356 456 716 959 990 881 607 416 161 160 211 594 1249
0 0 0 0 0 0 0 0 0 0 0 44 0 68 19 68 222 146 31 0 0 0 0 0 0 0 23 106 168 370 375 485 519 715 823 1083 1018 756 825 869 837 386 764 1562
0 0 0 0 0 0 0 0 0 8 28 16 0 33 27 0 0 78 135 91 0 0 0 0 0 0 25 109 199 468 523 573 615 723 848 948 959 786 848 860 1160 1167 1051 1522
0 0 0 0 0 0 0 0 0 4 0 0 0 0 0 0 0 0 75 181 50 0 0 0 0 10 33 113 202 543 625 658 717 792 892 977 863 837 847 1036 1373 1356 1398 1563
0 0 0 0 0 0 0 0 0 0 0 0 0 0 0 0 35 23 0 185 82 1 0 8 0 48 54 67 164 597 753 836 875 832 876 1011 1188 1118 1029 1036 1257 1474 1535 1665
0 0 0 0 0 0 0 0 0 0 0 0 0 0 0 0 49 52 117 108 62 83 19 43 24 28 96 117 156 326 604 722 773 839 805 1007 1240 1484 1544 1249 1366 1278 1324 1560
0 0 0 0 0 0 0 0 0 0 0 0 0 0 0 0 0 169 46 88 9 114 90 58 71 42 191 347 416 755 818 860 871 939 758 962 1208 1407 1762 1859 1699 1477 1365 1556
0 0 0 0 0 0 0 0 0 0 0 0 0 0 0 0 0 0 14 2 140 138 153 109 142 155 526 547 343 897 1305 846 915 1155 1214 1154 1301 1546 1772 1830 1851 1872 1892 1616
0 0 0 0 0 0 0 0 0 0 0 0 0 0 0 0 0 0 7 0 22 166 140 183 198 448 620 467 352 205 419 655 303 497 1458 1637 1641 1714 1874 1979 1988 2073 2096 1875
0 0 0 0 0 0 0 0 0 0 0 0 0 0 0 0 0 0 0 0 0 127 138 174 321 652 633 565 619 168 113 76 34 31 1457 1874 2064 2080 2048 2139 2169 2139 2012 2029
0 0 0 0 0 0 0 0 0 0 0 0 0 0 0 0 0 0 0 0 0 120 139 451 433 439 169 143 171 38 0 3 47 1267 1719 1792 2148 2384 2314 2225 1972 1776 1855 2016
0 0 0 0 0 0 0 0 0 0 0 0 0 0 0 0 0 0 0 0 0 86 117 467 363 225 17 0 0 27 39 45 1556 1835 2006 2034 2127 2254 2224 1994 1723 1680 1640 1453
0 0 0 0 0 0 0 0 0 0 0 0 0 0 0 4 0 0 0 1 0 50 25 346 389 163 0 0 33 87 357 333 1425 1961 2103 2163 2089 2099 2048 1856 1368 1204 1645 2173
0 0 0 0 0 0 0 0 0 0 0 0 0 0 0 0 91 273 0 5 68 66 34 88 511 251 46 2 100 505 58 510 1595 1777 1820 1806 1676 1556 858 857 1296 1847 2168 2182
0 0 0 0 0 0 0 0 13 72 30 18 51 10 59 758 778 414 591 654 6 65 2 0 104 520 120 74 166 797 461 499 1443 1683 1626 1436 1186 1175 1752 2093 2276 2107 2132 1623
0 0 0 0 0 0 0 0 26 12 90 0 0 98 756 849 307 56 914 1000 1112 1391 1038 46 152 390 763 251 217 769 612 686 1366 1591 1443 1179 1305 1893 2233 2254 1958 1176 660 565
0 0 0 0 0 0 0 0 0 40 1 0 0 431 887 832 76 536 1128 1199 1298 1753 1902 1529 1165 957 1076 1167 623 943 1198 1348 1586 1304 1295 1532 1865 2129 2064 1519 649 599 807 678
0 0 0 0 0 0 9 0 0 0 3 0 0 74 452 178 639 1053 1043 1334 1728 2134 2065 1545 2021 2149 1665 1409 1424 1456 1514 1490 1327 1493 1891 2098 2138 2002 1037 676 572 593 632 659
0 0 0 0 0 0 0 0 0 0 2 5 29 31 151 397 1171 961 1254 1573 1749 1874 1158 932 1767 2308 2049 1786 1514 1566 1612 1713 1710 1970 2018 1588 1005 676 553 684 466 701 605 34
0 0 0 1 0 0 0 0 0 9 24 10 0 31 100 630 910 895 680 461 329 210 329 293 54 30 0 146 1906 1915 1603 1248 1140 831 603 515 452 373 413 484 557 157 0 0
0 0 0 0 0 0 0 10 27 4 14 88 13 0 2 119 238 123 81 59 0 287 309 375 1456 1591 1184 1325 1480 1064 884 725 436 231 325 203 107 0 0 0 0 0 0 0
0 0 0 0 0 0 0 0 0 0 0 32 319 118 0 0 44 0 0 0 23 263 463 949 928 970 1030 756 625 540 522 572 644 612 444 107 0 0 0 0 0 0 0 0
CIN
-0 -0 -0 -0 -0 -0 -0 -37 -183 -187 -191 -140 -185 -306 -476 -509 -0 -0 -0 -0 -0 -0 -0 -0 -0 -0 -0 -0 -361 -305 -308 -335 -349 -428 -275 -201 -144 -180 -229 -282 -283 -297 -357 -259
-0 -0 -0 -0 -0 -0 -0 -0 -237 -257 -239 -223 -318 -246 -483 -543 -511 -0 -0 -0 -0 -0 -0 -0 -0 -0 -0 -219 -328 -323 -341 -369 -396 -396 -290 -207 -166 -196 -214 -232 -283 -215 -309 -235
-0 -0 -0 -0 -0 -0 -0 -0 -0 -220 -251 -342 -316 -269 -492 -623 -544 -46 -0 -0 -0 -0 -0 -0 -0 -0 -0 -550 -409 -336 -341 -378 -367 -364 -266 -329 -359 -306 -248 -216 -204 -197 -179 -222
-0 -0 -0 -0 -0 -0 -0 -0 -0 -232 -250 -157 -322 -118 -442 -517 -628 -106 -0 -0 -0 -0 -0 -0 -0 -0 -0 -502 -422 -337 -358 -343 -345 -301 -218 -188 -166 -132 -195 -208 -242 -243 -257 -153
-0 -0 -0 -0 -0 -0 -0 -0 -0 -330 -26 -2 -296 -238 -0 -678 -546 -8 -0 -0 -0 -0 -0 -0 -0 -0 -576 -436 -419 -385 -398 -343 -287 -290 -220 -192 -192 -244 -292 -337 -308 -359 -276 -174
-0 -0 -0 -0 -0 -0 -0 -0 -0 -0 -0 -273 -0 -256 -190 -405 -313 -448 -578 -0 -0 -0 -0 -0 -0 -0 -520 -471 -447 -433 -404 -335 -308 -304 -267 -191 -159 -194 -178 -183 -230 -297 -261 -172
-0 -0 -0 -0 -0 -0 -0 -0 -0 -72 -269 -56 -0 -328 -203 -0 -135 -459 -539 -598 -0 -0 -0 -0 -0 -0 -599 -454 -514 -471 -463 -370 -332 -309 -278 -240 -208 -205 -151 -151 -195 -178 -226 -196
-0 -0 -0 -0 -0 -0 -0 -0 -0 -56 -0 -0 -0 -0 -0 -0 -0 -0 -577 -552 -591 -0 -0 -0 -0 -569 -569 -458 -524 -451 -443 -374 -359 -341 -313 -262 -234 -234 -236 -189 -202 -213 -211 -185
-0 -0 -0 -0 -0 -0 -0 -0 -0 -0 -0 -0 -0 -0 -0 -0 -592 -641 -0 -574 -608 -155 -12 -599 -0 -504 -518 -483 -549 -489 -445 -379 -377 -360 -350 -321 -254 -228 -254 -194 -227 -205 -207 -182
-0 -0 -0 -0 -0 -0 -0 -0 -0 -0 -0 -0 -0 -0 -0 -0 -303 -506 -550 -580 -618 -594 -651 -546 -522 -479 -506 -455 -539 -577 -445 -361 -367 -358 -379 -334 -291 -247 -229 -215 -176 -170 -172 -186
-0 -0 -0 -0 -0 -0 -0 -0 -0 -0 -0 -0 -0 -0 -0 -0 -0 -422 -523 -622 -651 -577 -579 -607 -506 -508 -522 -590 -584 -484 -474 -351 -305 -287 -347 -333 -314 -264 -199 -187 -190 -212 -206 -191
-0 -0 -0 -0 -0 -0 -0 -0 -0 -0 -0 -0 -0 -0 -0 -0 -0 -0 -639 -37 -580 -607 -560 -689 -685 -640 -566 -553 -613 -529 -504 -468 -477 -314 -294 -293 -289 -279 -194 -216 -176 -158 -151 -195
-0 -0 -0 -0 -0 -0 -0 -0 -0 -0 -0 -0 -0 -0 -0 -0 -0 -0 -466 -0 -670 -678 -754 -924 -686 -614 -596 -626 -691 -725 -581 -579 -687 -503 -226 -228 -257 -251 -214 -201 -171 -141 -141 -156
-0 -0 -0 -0 -0 -0 -0 -0 -0 -0 -0 -0 -0 -0 -0 -0 -0 -0 -0 -0 -0 -703 -922 -941 -684 -633 -669 -671 -558 -878 -878 -737 -913 -746 -292 -217 -217 -236 -215 -196 -160 -129 -147 -132
-0 -0 -0 -0 -0 -0 -0 -0 -0 -0 -0 -0 -0 -0 -0 -0 -0 -0 -0 -0 -0 -755 -968 -845 -878 -872 -987 -906 -722 -766 -0 -984 -627 -452 -327 -256 -265 -222 -183 -175 -161 -163 -157 -138
-0 -0 -0 -0 -0 -0 -0 -0 -0 -0 -0 -0 -0 -0 -0 -0 -0 -0 -0 -0 -0 -803 -886 -922 -990 -1005 -835 -0 -0 -1038 -1003 -1084 -442 -324 -318 -302 -262 -236 -195 -200 -196 -185 -184 -187
-0 -0 -0 -0 -0 -0 -0 -0 -0 -0 -0 -0 -0 -0 -0 -81 -43 -0 -0 -57 -0 -726 -850 -949 -976 -1053 -0 -0 -1044 -825 -860 -894 -532 -410 -279 -270 -211 -209 -184 -195 -240 -247 -163 -95
-0 -0 -0 -0 -0 -0 -0 -0 -0 -0 -0 -0 -0 -0 -0 -0 -585 -860 -0 -176 -581 -689 -843 -935 -801 -882 -936 -613 -1102 -898 -919 -838 -486 -370 -285 -299 -246 -248 -332 -317 -223 -145 -107 -97
-0 -0 -0 -0 -0 -0 -0 -0 -204 -215 -131 -494 -461 -514 -645 -820 -597 -454 -935 -977 -886 -944 -205 -0 -940 -734 -966 -977 -995 -649 -766 -829 -482 -336 -296 -340 -353 -319 -183 -117 -92 -117 -109 -143
-0 -0 -0 -0 -0 -0 -0 -0 -526 -560 -71 -0 -0 -590 -778 -637 -246 -321 -969 -982 -970 -876 -862 -1259 -1072 -809 -645 -839 -808 -571 -608 -649 -442 -323 -343 -376 -353 -193 -112 -117 -134 -233 -299 -279
-0 -0 -0 -0 -0 -0 -0 -0 -0 -101 -37 -0 -0 -688 -686 -515 -845 -1019 -901 -954 -922 -788 -698 -694 -702 -651 -559 -551 -571 -461 -407 -414 -351 -376 -342 -280 -261 -186 -165 -208 -335 -330 -264 -258
-0 -0 -0 -0 -0 -0 -240 -0 -0 -0 -492 -0 -0 -770 -688 -865 -926 -855 -859 -861 -760 -635 -606 -717 -545 -420 -431 -402 -393 -361 -367 -389 -414 -314 -216 -196 -183 -192 -336 -366 -364 -316 -281 -227
-0 -0 -0 -0 -0 -0 -0 -0 -0 -0 -81 -944 -891 -803 -650 -601 -691 -837 -738 -692 -627 -553 -686 -706 -529 -445 -437 -292 -210 -303 -384 -335 -289 -224 -238 -243 -327 -415 -446 -370 -376 -277 -261 -146
-0 -0 -0 -7 -0 -0 -0 -0 -0 -838 -854 -1024 -89 -915 -1000 -753 -759 -729 -835 -892 -895 -934 -853 -927 -989 -802 -139 -643 -99 -144 -333 -411 -401 -416 -370 -403 -415 -430 -411 -379 -327 -410 -0 -0
-0 -0 -0 -0 -0 -0 -0 -617 -697 -440 -821 -793 -491 -0 -583 -969 -935 -945 -967 -829 -265 -698 -663 -629 -265 -216 -312 -279 -128 -223 -469 -519 -600 -576 -466 -390 -525 -0 -0 -0 -0 -0 -0 -0
-0 -0 -0 -0 -0 -0 -0 -0 -0 -0 -0 -834 -748 -603 -0 -0 -938 -0 -0 -0 -976 -700 -474 -237 -135 -115 -187 -320 -379 -483 -543 -593 -544 -425 -475 -575 -0 -0 -0 -0 -0 -0 -0 -0
Wind_Speed
1 5 7 10 7 2 6 3 3 3 4 3 5 5 12 14 10 8 8 9 11 12 15 9 11 12 11 9 10 9 8 7 5 3 3 3 3 1 2 3 4 4 2 3
6 7 6 3 4 4 4 3 4 3 4 4 5 7 11 15 17 16 13 11 14 13 8 7 10 13 13 13 11 9 10 7 7 3 3 2 3 2 1 2 4 3 5 4
6 4 8 5 3 2 1 4 4 3 2 4 1 5 6 8 9 10 10 11 10 14 11 9 10 15 13 13 14 14 12 10 8 6 3 2 3 1 2 2 3 4 5 5
4 2 5 4 3 6 3 8 5 4 4 2 2 7 4 7 16 16 16 15 15 14 8 7 9 10 13 15 13 11 10 9 7 7 5 5 4 4 3 2 2 2 4 3
8 7 5 4 7 7 8 5 4 5 4 3 2 2 7 5 8 18 19 20 18 18 12 12 14 16 18 13 13 11 10 9 8 9 7 5 3 2 1 2 2 2 2 5
7 2 4 9 3 7 6 7 9 5 3 3 3 5 9 6 10 13 17 20 20 17 13 13 15 13 10 8 8 10 11 10 8 9 7 8 7 4 2 0 2 0 2 2
4 4 3 3 5 4 7 8 4 4 3 8 5 2 13 5 5 9 20 20 21 18 13 10 11 11 9 12 11 11 12 9 10 9 8 7 7 6 6 4 3 2 2 3
6 5 8 5 8 9 6 9 9 8 5 5 5 7 11 4 8 8 13 16 17 15 12 13 15 14 14 14 13 12 12 10 10 9 9 7 6 4 4 4 3 3 3 3
6 7 4 5 5 9 5 4 5 8 4 3 5 9 13 3 4 1 6 9 13 13 13 15 13 14 14 13 14 14 12 9 10 11 7 8 7 7 6 6 4 3 3 3
7 1 4 1 4 4 6 7 3 3 3 6 5 5 8 6 4 5 6 10 12 12 12 12 13 13 14 10 8 10 5 1 3 9 8 7 7 6 6 5 6 4 3 4
7 5 5 2 5 9 3 1 7 6 4 7 4 9 10 9 8 12 11 11 11 11 14 13 14 10 9 13 14 11 9 6 1 2 4 6 7 7 5 5 4 4 3 4
7 7 4 10 1 2 3 7 8 7 5 2 3 10 5 8 5 12 14 9 8 9 12 9 11 13 14 17 17 14 11 9 6 5 6 9 6 7 6 6 6 5 5 4
10 1 3 9 8 2 4 4 4 6 5 7 6 9 4 4 6 9 13 9 9 8 8 11 14 15 16 17 17 13 15 18 14 5 8 8 8 7 8 6 5 5 5 5
9 4 8 9 9 5 3 3 4 5 5 6 8 7 10 10 7 8 9 8 9 8 8 11 13 13 14 14 13 11 10 9 11 11 7 8 9 8 7 6 5 5 5 4
4 5 5 6 4 3 3 5 9 8 6 7 11 10 11 13 9 12 9 4 8 10 12 14 14 14 13 12 10 7 6 9 6 8 9 11 8 6 5 5 5 4 4 4
4 2 2 2 3 3 2 6 8 4 2 9 3 10 11 3 2 7 8 8 10 14 15 15 16 16 15 16 10 9 12 14 9 7 9 7 7 7 6 5 5 5 4 4
4 5 3 2 5 7 4 7 7 4 5 6 7 13 4 5 8 8 10 10 13 16 16 18 21 18 18 14 12 6 3 9 6 7 4 5 5 6 5 5 6 5 5 4
5 4 2 1 5 0 10 4 3 5 8 8 8 7 8 6 2 2 5 12 12 11 17 17 15 17 15 12 8 7 5 10 8 4 5 6 7 7 5 5 5 5 4 4
3 6 3 4 3 6 4 3 2 3 7 2 6 9 4 1 3 6 6 3 4 3 11 13 14 18 19 17 14 11 7 7 8 8 8 7 8 8 8 7 6 4 4 3
6 6 5 3 4 5 8 3 1 2 7 1 3 7 1 1 3 8 5 6 6 7 13 16 15 16 20 20 19 16 11 8 9 10 9 8 9 9 8 8 7 3 4 5
3 3 5 4 3 8 6 4 1 4 10 6 4 5 7 6 4 6 1 4 5 7 13 15 14 13 15 20 20 17 16 16 13 10 9 9 10 10 7 6 3 5 5 6
4 5 3 3 2 4 0 2 5 6 5 4 6 6 6 2 2 3 2 8 9 13 14 15 16 15 11 9 15 16 16 11 11 11 11 8 8 7 7 8 5 5 5 6
1 5 5 7 6 4 4 3 2 2 4 6 5 5 6 8 7 7 5 4 6 8 9 6 9 13 16 12 1 12 10 13 13 12 10 7 6 6 6 7 6 5 5 6
1 3 2 3 2 4 4 5 4 4 4 10 10 5 3 4 7 4 3 3 5 6 6 6 3 6 9 17 0 7 13 14 13 11 5 5 7 7 5 5 3 4 5 6
3 4 4 3 4 3 4 4 5 10 5 6 8 5 6 7 5 4 3 4 5 7 6 4 4 6 9 22 11 7 11 14 15 11 8 3 6 8 8 9 5 4 4 3
5 5 4 3 5 4 7 7 10 11 8 6 5 7 3 6 8 7 6 3 5 7 8 10 5 7 11 13 14 12 13 16 18 13 9 6 6 7 7 8 10 19 13 18
Wind_Direction
13 105 201 203 202 115 122 130 149 239 203 140 203 188 179 184 184 195 204 215 216 209 220 196 191 193 189 186 177 184 169 185 160 159 160 199 197 143 187 197 186 211 180 184
26 226 199 180 102 46 86 133 224 279 166 145 213 226 182 182 200 192 199 213 217 227 205 204 185 185 187 188 186 184 186 178 192 182 188 164 145 185 148 167 204 180 177 188
159 250 152 142 118 137 354 193 195 191 78 23 112 292 164 202 195 199 213 216 232 227 207 188 190 190 186 187 188 190 186 184 195 181 138 100 94 61 148 164 210 213 184 189
206 261 150 117 203 135 226 208 201 131 100 224 356 281 244 197 201 202 207 213 223 227 207 178 182 184 190 201 194 185 177 179 191 170 183 176 172 174 220 176 175 181 193 193
240 163 154 168 202 159 225 159 164 97 77 39 247 41 268 138 213 212 209 210 212 225 206 181 186 193 198 189 189 179 172 177 186 183 187 186 193 184 172 167 196 204 241 204
213 274 186 185 148 176 126 67 39 57 74 325 228 146 279 194 211 214 212 208 207 209 201 192 192 192 190 182 162 165 173 184 184 185 183 186 199 192 202 288 267 283 221 211
345 240 247 153 119 51 87 75 16 359 0 232 321 115 239 237 241 209 203 206 204 199 193 173 167 175 174 184 169 168 173 187 189 188 186 192 195 192 203 218 243 209 208 223
166 306 175 192 184 173 172 152 153 179 208 242 56 240 253 282 293 244 215 206 198 187 178 177 182 178 185 184 179 175 177 186 189 189 194 186 194 199 211 204 194 227 210 183
142 276 275 193 157 136 193 191 170 99 19 83 218 285 307 307 3 253 205 158 188 183 176 182 177 183 185 180 181 181 174 180 187 200 191 192 181 187 207 207 209 215 221 191
204 145 216 328 105 44 149 160 95 4 133 264 278 279 245 292 240 250 224 200 196 186 179 179 180 183 190 173 103 89 59 345 250 193 197 199 200 195 194 183 223 210 209 202
139 113 279 141 181 173 35 52 44 110 120 181 240 262 220 243 192 210 218 207 194 180 187 176 182 170 121 114 123 142 126 87 5 265 273 193 192 208 187 191 208 215 209 220
196 133 199 213 41 82 137 177 148 132 229 185 195 265 243 247 254 208 214 196 196 194 186 170 137 138 137 133 137 140 144 156 206 226 197 216 201 188 204 191 194 196 224 234
183 170 46 349 358 25 201 167 131 108 87 193 160 268 280 279 254 227 209 191 189 185 133 120 146 154 155 153 148 166 161 188 169 189 222 214 203 188 199 192 192 196 206 227
98 120 156 184 204 164 157 137 167 127 121 179 226 263 290 286 236 241 230 197 184 165 131 142 160 160 164 162 172 179 181 199 153 193 199 212 209 200 191 177 184 202 208 223
106 137 176 207 213 202 198 177 174 192 176 157 251 206 242 250 219 217 226 156 154 135 138 154 162 166 161 155 177 170 135 130 154 170 184 208 196 177 176 167 173 193 192 214
340 132 163 3 241 187 227 238 199 226 150 267 252 267 225 269 187 164 192 181 198 151 157 166 166 161 155 162 168 207 160 134 138 175 188 174 180 159 175 159 164 175 175 206
60 117 88 272 30 0 324 230 193 198 180 154 179 231 159 206 227 204 196 193 206 147 165 172 176 165 161 174 158 174 172 95 114 142 189 158 158 157 161 154 157 162 174 167
130 92 85 145 34 287 241 302 255 228 257 212 275 262 239 238 269 263 218 206 202 169 169 181 169 159 165 158 159 177 197 115 130 156 194 154 168 146 149 156 162 159 143 158
149 125 91 125 175 282 308 357 69 77 290 94 270 289 276 16 45 286 197 179 215 113 124 173 175 154 159 175 175 166 171 112 142 190 198 169 148 147 151 154 162 142 134 123
74 65 119 124 152 205 237 252 171 178 287 194 256 268 226 145 141 244 155 143 125 113 131 151 164 150 163 176 178 179 179 160 187 192 176 162 151 153 166 158 150 139 118 115
48 44 154 140 195 284 243 279 129 155 242 314 312 234 172 172 204 277 222 92 109 121 116 122 135 144 160 167 176 190 180 189 186 158 155 164 158 155 148 135 130 127 119 107
150 132 192 90 120 280 85 291 182 234 293 290 288 225 175 177 53 301 216 130 134 123 118 117 119 116 111 157 173 176 184 166 144 150 154 159 156 147 144 135 117 119 116 114
236 181 176 174 218 273 302 335 339 279 270 308 289 246 205 169 175 177 194 177 110 106 114 91 104 126 122 104 170 175 155 140 147 148 142 147 146 132 128 129 129 119 120 126
204 137 153 31 359 279 326 325 294 298 282 298 287 251 159 134 131 152 130 29 56 65 49 27 340 203 85 47 103 190 145 128 115 100 83 117 112 97 82 84 96 122 130 127
196 132 183 257 6 339 346 310 290 309 308 338 324 295 125 122 128 149 125 102 97 89 82 59 71 80 102 136 148 165 122 124 111 104 99 54 90 94 87 65 37 68 37 108
185 178 159 168 199 181 267 280 312 318 322 323 341 315 287 148 144 107 127 93 71 101 129 111 79 136 138 127 137 135 136 129 121 124 115 126 126 108 105 108 85 44 54 71